Погода Приморско-Ахтарск

Погода Приморско-Ахтарск : погода сейчас, прогноз погоды и архив. Всё, что Вы хотите узнать о погоде Приморско-Ахтарск!

Хотите узнать прогноз погоды Приморско-Ахтарск? Тогда Вам сюда: Погода Приморско-Ахтарск

Поиск расширенной информации на нашем сайте:

Другие новости

Новости СМИ2

Главная страница сайта

Новости сайта

03.07.2017

Напоминаем, что на нашем специализированном сайте Метеоцентр.Азия вы можете получить высокодетализированные автоматические прогнозы погоды по пунктам России, СНГ и мира в авиационном формате (включающие направление и скорость ветра, видимость, явления погоды, количество и форму облачности, нижнюю и верхнюю границу облачности).

Рекомендуем: Увеличение продаж цена: как правильно применять вилку цен для увеличения продаж.

Погода Приморско-Ахтарск - сегодня

Время (UTC), дата Ветер
(°,м/с) 
Видим.   Явления Облачность Т
(°С)
Тd
(°С)
f(%) Тe
(°С)
Pmin
(гПа)
dP
(гПа)
Po
(мм)
O2
(г/м3)
Тmin Tmax R s Состояние
почвы
09 16.06.18 240 (ЮЗ) 10 км    10/0 средняя, верхняя 
[Ac trans|Ci fib]
+28.6 +18.4 54 +43  1008.6  1.3  756  272           
12 16.06.18 тихо ()   10 км    10/4 600 м средняя, верхняя 
[Cu med, cong|Ac trans|Ci fib]
+28.5 +18.3 54 +43  1008.8  0.2  756  272           
15 16.06.18 тихо ()   10 км    10/6 600 м средняя, верхняя 
[Cu med, cong|Ac trans|Ci fib]
+26.1 +19.5 67 +43  1008.9  0.1  756  274    +29.7       
18 16.06.18 тихо ()   10 км    10/0 средняя, верхняя 
[Ac trans|Ci fib]
+23.3 +19 77 +39  1009.4  0.5  757  276           
21 16.06.18 350 (С) 10 км    ясно 
+24 +20.1 79 +43  1008.7  -0.7  756  275           
00 17.06.18 080 (В) 10 км    10/10 600 м 
[Cu med, cong]
+24.6 +9.7 39 +25  1008.4  -0.4  756  278           
03 17.06.18 090 (В) 10 км    10/10 600 м кучево-дожд. 
[Cb calv]
+23.7 +7.2 35 +24  1008.5  0.1  756  279  +22.9        сухая 
06 17.06.18 090 (В) 4{10}  10 км    10/6 600 м средняя 
[Sc diur, vesp|Ac cuf]
+24.1 +6.7 33 +24  1008.6  0.1  756  279           
09 17.06.18 110 (В) 2{10}  10 км    10/4 600 м кучево-дожд., средняя, верхняя 
[Cb calv|Ac lent|Ci sp]
+26.4 +8.2 32 +26  1009.8  1.2  757  277           
12 17.06.18 120 (ЮВ) 10 км    10/5 600 м средняя 
[Sc diur, vesp|Ac As]
+28.5 +10.8 33 +31  1009.2  -0.6  757  274           
15 17.06.18 100 (В) 10 км    10/5 600 м кучево-дожд., средняя 
[Cb calv|Ac und]
+27.1 +9.7 34 +28  1009.2  757  276    +28.8       
18 17.06.18 тихо ()   10 км    10/0 средняя 
[Ac und]
+24.6 +12.2 46 +29  1009.3  0.1  757  277           
21 17.06.18 070 (В) 10 км    10/0 средняя 
[Ac und]
+23.6 +4.5 29 +24  1009  -0.3  756  280           
00 18.06.18 060 (СВ) 10 км    10/0 средняя 
[Ac trans]
+22 +3.8 30 +22  1008.5  -0.5  756  281           
03 18.06.18 080 (В) 10 км    10/3 1000 м средняя 
[Sc|Ac und]
+20.9 +3.4 32 +21  1008.5  756  282  +20.9        сухая 
06 18.06.18 080 (В) 10 км    10/0 средняя, верхняя 
[Ac trans|Ci fib]
+22.8 +4.3 30 +23  1008.6  0.1  756  281  +20.8         
09 18.06.18 070 (В) 10 км    10/4 600 м средняя, верхняя 
[Cu med, cong|Ac trans|Ci fib]
+25.5 +6.9 30 +26  1009  0.4  756  278           
12 18.06.18 080 (В) 10 км    10/3 600 м средняя, верхняя 
[Cu med, cong|Ac trans|Ci fib]
+29.9 +4 19 +30  1008.4  -0.5  756  274           
15 18.06.18 090 (В) 2{10}  10 км    10/3 600 м средняя, верхняя 
[Cu med, cong|Ac trans|Ci fib]
+29 +6.6 24 +29  1008.3  0.1  756  274    +30.8       
18 18.06.18 тихо ()   10 км    ясно 
+25.1 +7.9 33 +25  1008.9  0.5  756  278           
21 18.06.18 тихо ()   10 км    ясно 
+20.1 +9.5 50 +20  1010.1  1.2  757  283           
00 19.06.18 070 (В) 10 км    ясно 
+19.5 +11.4 59 +24  1010.4  1.2  757  283           
03 19.06.18 070 (В) 10 км    ясно 
+19.8 +11.6 59 +24  1011.4  758  283  +18.5        сухая 
06 19.06.18 080 (В) 10 км    ясно 
+26.8 +11.4 38 +30  1012.3  0.8  759  276           
09 19.06.18 070 (В) 10 км    1/1 600 м 
[Cu hum]
+31 +5.5 20 +31  1012.3  759  274           
Время (UTC), дата Ветер
(°,м/с) 
Видим.   Явления Облачность Т
(°С)
Тd
(°С)
f(%) Тe
(°С)
Pmin
(гПа)
dP
(гПа)
Po
(мм)
O2
(г/м3)
Тmin Tmax R s Состояние
почвы

Для получения пояснительной информации подведите курсор к названию столбца.

ПОГОДА Приморско-Ахтарск - архив

Всё, что Вы хотите узнать о погоде Приморско-Ахтарск - удобно и подробно!

Выберите нужную дату (начиная с 1 января 2015* года) и нажмите кнопку "Найти".
Будут отображены архивные сводки погоды по пункту Приморско-Ахтарск, начиная с указанной даты.


Отображать данные в формате CSV (для использования в таблицах Excel)


Внимание! Наш архив погоды предназначен исключительно для личного некоммерческого использования в познавательных целях. Если Вам необходимы официальные справки о состоянии погоды (для производственных, юридических, коммерческих и т.п. целей), обращайтесь в органы Росгидромета.

*Примечание: данная дата относится к архиву по метеостанциям СССР (Россия, СНГ, Балтия).
Архив по метеостанциям Зарубежной Европы и Азии (кроме Китая) хранится 10 дней, по другим регионам земного шара (Китай, Африка, Америка, Австралия, Океания) - 1 день.

Приморско-Ахтарск - район местоположения метеостанции


Название, широта, долгота, высота метеостанции:
Приморско-Ахтарск 46°ш. 38.2°д. 5 м над ур. моря [Российская Федерация]

Дополнительная информация

В oтличие oт бoльшинства пoгoдных сайтoв мы публикуем пoдрoбную метеoинфoрмацию в детальнoм прoфессиoнальнoм фoрмате.

Характеристики температуры и влажнoсти вoздуха измеряются на высoте 2 м в тени вдали oт зданий и деревьев.
Скoрoсть ветра измеряется на высoте 10 м (на урoвне рoста челoвека скoрoсть ветра ниже в 1.5-2 раза). Если метеoстанция нахoдится в гoрoде или в лесу, тo скoрoсть ветра занижена на 2-4 м/с пo сравнению с oткрытым местoм. Скoрoсть ветра над акватoриями крупных рек и oзёр, а также на вершинах хoлмoв на 2-5 м/с выше, чем в oбычных услoвиях.
Атмoсфернoе давление в разных тoчках местнoсти мoжет значительнo oтличаться oт давления на метеoстанции, в зависимoсти oт услoвий рельефа (при пoдъёме на 10 м давление пoнижается примернo на 1 мм рт.ст.).